MICROSAT-R (43947 NORAD) Tracking and Keplerian Element Data

This shows tracking and keplerian element data for the satellite.

Feedback or suggestion? Click here.




ElementValue
Catalog43947
NameMICROSAT-R
Epoch Orbit464
Epoch Day53.81007041
Epoch Year2019
RAAN327.4951
Inclination96.6179
Eccentricity0.0042532
Argument of Perigee262.9163
Mean Anonmoly178.7422
Mean Motion16.01170011
Decay Rate0.00154209
L11 43947U 19006A 19053.81007041 .00154209 11664-4 25668-3 0 9995
L22 43947 96.6179 327.4951 0042532 262.9163 178.7422 16.01170011 4646

Live tracking and technical data element details for MICROSAT-R (NORAD 43947). MICROSAT-R can be tracked NOW for your location showing map with azimuth and elevation plus other details from your city location.

Track the satellite on the map from your city or location and see movement details for azimuth, elevation, latitude, longitude, range, height, and movement on the map or in text.







IsCatalogInMostPopularTable: catalog: 43947, numindb: 133
Update: records affected: 1



GetName: 43947 MICROSAT-R

Hit Count: updated at: Mon, 15 Jul 2019 22:24:22 GMT